This is the latest recevied weather packets stored in our database for station/object KB3KBR-WX. If no packets are shown the sender has not sent any weather packets the latest 10 day(s).
| Time | Temp. | Humidity | Pressure | Rain* | Wind** | Luminosity | Snow |
|---|---|---|---|---|---|---|---|
| 1778000939 | 20.56° C | 58% | 1004.4 hPa | 0 mm | - | - | - |
| 1778000642 | 20.56° C | 58% | 1004.5 hPa | 0 mm | - | - | - |
| 1778000339 | 20.56° C | 58% | 1004.6 hPa | 0 mm | - | - | - |
| 1778000043 | 20.56° C | 57% | 1004.3 hPa | 0 mm | - | - | - |
| 1778000040 | 20.56° C | 57% | 1004.3 hPa | 0 mm | - | - | - |
| 1777999709 | 20.56° C | 58% | 1004.4 hPa | 0 mm | - | - | - |
| 1777999379 | 20° C | 59% | 1004.4 hPa | 0 mm | - | - | - |
| 1777999050 | 20° C | 59% | 1004.4 hPa | 0 mm | - | - | - |
| 1777998719 | 20° C | 59% | 1004.6 hPa | 0 mm | - | - | - |
| 1777998419 | 20° C | 60% | 1004.7 hPa | 0 mm | - | - | - |
| 1777998089 | 20° C | 61% | 1004.7 hPa | 0 mm | - | - | - |
| 1777997789 | 19.44° C | 61% | 1004.9 hPa | 0 mm | - | - | - |
| 1777997489 | 19.44° C | 62% | 1004.8 hPa | 0 mm | - | - | - |
| 1777997189 | 18.89° C | 63% | 1004.9 hPa | 0 mm | - | - | - |
| 1777996890 | 18.89° C | 63% | 1005 hPa | 0 mm | - | - | - |
| 1777996589 | 18.89° C | 63% | 1005 hPa | 0 mm | - | - | - |
| 1777996259 | 18.89° C | 63% | 1005 hPa | 0 mm | - | - | - |
| 1777995959 | 19.44° C | 62% | 1004.9 hPa | 0 mm | - | - | - |
| 1777995659 | 20° C | 62% | 1004.8 hPa | 0 mm | - | - | - |
| 1777995329 | 20° C | 61% | 1004.6 hPa | 0 mm | - | - | - |
| 1777994699 | 19.44° C | 62% | 1004.6 hPa | 0 mm | - | - | - |
| 1777994399 | 20° C | 63% | 1004.3 hPa | 0 mm | - | - | - |
| 1777994069 | 18.89° C | 66% | 1004.3 hPa | 0 mm | - | - | - |
| 1777993739 | 18.89° C | 67% | 1004.3 hPa | 0 mm | - | - | - |
| 1777993409 | 18.89° C | 66% | 1004.4 hPa | 0 mm | - | - | - |
* Rain latest hour (hover to see other rain measurements)
** Current wind speed in m/s (hover to see current wind gust speed)